Wind_Speed
11 11 11 12 12 12 10 10 10 10 9 9 9 10 9 9 9 9 9 9 9 8 9 9 9 9 9 9 10 10 10 10 11 11 11 11 10 10 11 12 12 12 12
11 11 11 11 12 12 11 10 10 10 9 9 9 10 10 10 9 10 10 10 10 10 9 9 9 9 9 9 9 9 9 10 10 11 11 11 11 11 12 12 12 13 13
12 12 12 12 12 11 11 10 10 10 10 9 9 9 10 10 10 10 10 10 10 10 10 10 10 10 10 9 9 9 9 10 10 10 11 11 12 12 12 13 14 14 13
12 13 12 12 12 11 11 10 11 10 10 10 10 10 10 10 10 11 11 10 11 11 11 11 11 10 10 9 9 9 10 10 10 10 11 11 12 13 12 13 14 14 14
13 13 13 13 12 10 10 10 10 11 11 11 10 10 11 11 11 11 11 11 10 11 11 11 11 11 11 10 10 10 11 11 11 11 11 12 13 13 13 13 13 13 14
13 13 13 12 12 11 11 11 11 11 11 11 11 11 12 11 11 11 11 11 11 11 11 11 11 11 11 11 10 10 10 11 12 12 13 13 13 12 12 13 13 13 14
13 13 12 12 11 11 11 11 12 12 12 12 11 12 12 12 12 12 12 12 12 12 12 12 12 11 12 12 11 11 11 11 11 12 12 13 13 13 13 13 14 14 15
13 12 11 11 11 12 12 12 12 12 12 12 12 13 13 12 12 12 12 12 12 12 12 12 12 12 13 12 12 12 12 12 12 12 12 13 13 13 14 13 14 15 15
12 12 11 11 11 12 12 12 12 12 12 13 12 12 12 12 12 12 12 12 13 13 13 13 13 13 13 13 13 13 13 13 13 13 13 13 13 14 14 14 13 13 14
11 11 10 11 11 11 11 12 12 12 12 12 11 11 11 11 11 12 12 13 13 14 14 14 14 14 14 14 14 14 14 14 14 14 14 14 14 14 14 14 15 14 14
11 11 11 11 11 11 11 11 12 12 12 12 11 11 11 11 12 12 13 13 14 14 14 15 15 14 14 14 15 14 14 14 14 14 14 14 15 15 15 15 15 15 16
10 10 10 11 11 11 12 12 12 12 12 12 12 11 11 12 12 13 13 14 14 14 14 15 14 14 14 14 14 14 14 14 14 14 14 14 14 14 15 15 15 16 16
11 11 11 11 11 12 12 13 14 13 13 12 12 12 12 12 13 13 13 13 13 13 14 14 14 14 14 14 14 14 14 15 15 15 14 15 15 14 15 15 15 15 16
12 12 12 12 13 13 14 14 14 14 13 12 12 12 13 13 13 13 13 13 13 14 14 14 14 15 15 15 15 15 15 15 15 14 15 15 15 15 14 15 15 16 15
14 14 14 14 14 15 15 14 15 15 13 13 13 13 13 13 13 13 13 14 13 13 14 15 15 15 15 15 16 16 15 15 15 15 16 16 16 15 15 15 15 15 15
14 15 16 16 16 16 16 15 15 14 14 14 14 14 14 14 14 14 14 15 14 14 14 15 15 16 16 16 16 16 16 16 16 17 17 17 16 16 16 16 15 15 15
15 16 16 17 16 16 16 16 15 15 15 15 15 15 15 15 15 14 14 15 14 14 15 15 16 16 16 17 17 17 16 16 16 17 17 17 17 17 17 17 16 17 17
17 16 16 17 17 17 16 16 16 16 16 16 16 16 16 16 16 16 15 15 15 15 15 15 16 16 16 17 16 16 17 17 16 17 18 17 17 17 17 17 18 18 19
18 17 17 18 18 18 18 17 17 17 17 17 17 17 17 17 17 16 16 16 16 16 16 16 16 16 16 16 16 16 17 17 17 17 17 17 17 17 18 18 18 19 19
18 19 19 19 19 19 19 18 18 18 18 18 18 18 17 17 17 17 17 17 16 16 16 16 16 16 16 16 16 16 17 17 17 18 18 18 18 18 18 19 18 18 19
20 20 19 19 19 19 19 19 19 19 19 18 18 18 18 18 18 17 17 17 17 17 17 17 17 16 16 17 17 18 17 18 19 19 19 19 18 18 18 19 19 20 20
20 20 20 20 20 19 19 19 19 19 19 19 19 19 19 19 19 18 18 17 17 17 17 16 16 16 17 17 17 18 18 19 19 19 19 19 19 18 18 19 20 20 20
21 21 20 20 20 20 19 19 19 19 19 19 19 19 19 19 19 19 19 19 18 18 17 17 17 17 17 18 19 19 19 20 20 20 20 19 19 19 19 19 20 20 20
21 21 20 20 20 20 20 20 19 19 19 20 20 20 20 20 20 20 19 19 19 19 19 19 19 19 19 19 19 20 20 20 20 20 19 19 20 20 19 20 20 20 20
21 21 20 20 20 20 20 20 21 21 21 21 20 20 20 20 20 20 19 19 19 19 20 20 21 21 21 21 21 22 22 22 22 21 21 21 21 21 21 21 21 21 20
21 21 21 21 21 20 20 20 20 20 20 20 21 21 21 21 21 21 20 19 20 20 20 21 21 21 22 22 23 23 23 23 22 22 22 22 22 22 22 22 22 22 22
Wind_Direction
276 278 276 276 278 276 277 278 275 276 274 274 276 277 276 279 277 275 280 281 280 279 280 285 285 286 287 284 282 281 277 274 271 268 267 268 267 267 267 265 263 262 263
274 278 278 278 278 275 273 274 274 271 270 272 275 278 278 277 276 274 276 277 277 279 282 283 287 294 293 289 287 284 280 276 273 269 269 268 268 269 269 268 265 263 262
272 275 277 277 278 273 268 268 270 269 274 276 280 283 283 279 276 275 278 278 277 279 280 280 284 289 289 285 285 283 280 279 276 272 270 269 269 270 269 270 269 262 259
274 277 278 277 279 274 265 262 267 268 277 280 279 282 282 280 279 278 278 278 276 277 279 279 281 283 286 286 284 282 283 282 278 276 274 271 270 270 270 272 271 264 258
273 276 277 275 272 272 265 261 269 275 279 280 277 278 279 280 279 276 275 275 274 276 280 281 280 283 285 285 284 283 281 281 279 278 274 271 270 270 269 271 270 262 259
273 274 277 274 266 265 267 270 273 275 280 280 277 277 279 279 278 276 274 273 273 276 279 281 281 281 282 282 283 285 284 282 282 278 273 273 273 271 269 270 268 264 265
274 277 275 275 268 267 269 272 272 273 278 279 280 280 280 279 276 274 273 272 274 276 278 279 278 279 281 281 282 282 283 282 282 280 277 275 276 273 273 271 269 268 268
270 272 272 275 271 267 267 271 274 276 280 280 281 279 278 278 276 274 274 275 276 275 276 276 276 277 278 278 279 279 280 281 281 282 279 277 277 275 272 272 270 269 267
271 272 274 275 273 267 269 272 275 277 279 281 282 280 278 276 278 278 277 277 278 276 276 277 277 278 276 277 278 280 279 282 281 282 280 278 279 275 273 274 274 272 271
270 269 270 273 273 269 270 274 277 279 281 281 281 282 281 279 280 278 277 278 279 278 276 276 277 276 276 277 279 281 281 280 281 282 282 279 277 274 273 273 273 272 271
271 268 268 273 274 273 272 275 278 279 281 282 281 282 284 280 279 278 278 279 279 279 279 278 278 276 277 278 278 279 280 280 280 282 282 280 277 274 274 273 272 272 271
274 272 271 274 276 276 272 272 273 277 280 280 282 282 282 281 281 281 281 280 280 279 279 278 279 279 279 279 280 279 279 280 281 282 282 281 280 278 277 275 274 273 273
275 275 271 275 278 279 277 275 275 278 282 282 282 282 283 282 283 281 280 282 282 280 279 278 278 279 280 280 281 281 280 281 281 281 280 280 280 278 276 275 276 276 275
277 275 277 279 280 279 279 277 276 277 280 282 285 284 284 285 284 280 280 283 281 280 279 279 278 279 279 279 280 280 280 280 280 280 281 282 281 279 277 277 277 277 273
275 275 276 279 282 278 276 279 278 275 275 278 283 285 284 287 285 284 285 284 282 280 278 279 279 281 279 279 279 278 280 280 282 281 282 282 281 279 278 278 276 274 273
270 272 275 277 278 279 276 278 280 276 275 275 277 281 282 285 288 287 287 285 282 281 280 282 282 282 280 281 282 282 281 279 280 280 279 279 279 279 279 273 270 271 272
268 271 272 273 276 279 277 276 277 277 277 276 274 278 279 283 285 287 288 287 285 283 283 283 282 282 281 281 281 281 281 279 279 280 279 278 279 278 278 274 272 270 271
268 270 271 273 275 276 276 274 274 274 277 279 279 278 278 280 282 281 284 286 286 287 286 284 284 282 282 283 281 279 280 280 281 280 279 280 280 279 279 277 274 275 276
270 271 272 273 275 275 275 274 273 273 275 276 277 276 276 276 279 279 280 281 282 285 287 287 286 284 283 282 282 284 283 281 282 283 281 279 278 276 277 277 277 278 277
269 271 271 273 274 274 273 273 274 273 273 274 274 274 275 276 278 278 278 280 279 281 285 288 287 286 285 284 283 283 283 283 284 285 284 280 277 275 277 277 277 278 278
271 272 274 274 275 273 272 272 272 272 274 274 274 275 274 275 276 278 277 279 279 279 282 283 284 284 285 285 284 284 283 281 283 284 283 284 281 277 277 277 277 277 277
271 272 274 274 275 272 272 273 272 273 273 273 273 272 273 274 274 274 275 277 278 279 280 282 282 282 283 284 284 286 284 283 284 284 283 282 281 279 279 278 278 278 277
271 272 272 272 272 271 271 272 272 271 272 271 271 271 271 272 273 273 273 275 277 278 278 280 280 280 281 283 286 288 288 285 284 282 281 281 280 279 280 281 282 280 279
269 271 271 270 271 273 272 270 269 270 271 270 270 271 271 272 271 273 272 274 277 277 277 278 279 280 280 282 284 286 287 288 284 281 281 281 280 280 281 282 283 282 280
269 271 273 272 272 273 271 269 269 269 269 269 270 271 272 272 270 270 271 273 275 277 276 277 278 279 280 281 283 284 285 286 283 280 281 281 280 280 280 281 282 281 279
270 270 271 271 272 272 270 269 270 270 270 270 271 271 271 271 270 269 270 272 274 275 277 279 280 281 280 281 283 284 284 284 283 281 281 281 280 280 281 281 282 280 278
Height
5879 5879 5878 5877 5876 5876 5875 5875 5874 5874 5873 5873 5872 5871 5871 5870 5869 5868 5867 5866 5865 5864 5863 5863 5862 5861 5860 5860 5859 5858 5857 5857 5856 5856 5856 5855 5855 5854 5854 5854 5853 5853 5853
5877 5876 5876 5875 5874 5873 5873 5873 5872 5871 5871 5870 5870 5869 5868 5868 5867 5866 5865 5864 5863 5862 5862 5861 5860 5859 5858 5858 5857 5856 5855 5855 5854 5853 5853 5852 5852 5852 5851 5851 5851 5850 5850
5874 5874 5873 5872 5871 5871 5870 5870 5869 5869 5869 5868 5867 5867 5866 5865 5865 5864 5863 5862 5861 5860 5860 5859 5858 5857 5856 5856 5855 5854 5853 5853 5852 5851 5851 5850 5850 5849 5849 5847 5846 5846 5847
5872 5871 5870 5870 5869 5868 5868 5868 5867 5866 5866 5866 5865 5864 5864 5863 5862 5861 5861 5860 5859 5858 5858 5857 5856 5855 5854 5854 5853 5852 5851 5850 5850 5849 5848 5847 5847 5846 5845 5844 5842 5841 5843
5869 5868 5867 5867 5866 5865 5865 5865 5864 5864 5864 5863 5862 5862 5861 5860 5860 5859 5858 5857 5856 5856 5855 5854 5854 5853 5852 5851 5851 5850 5849 5848 5847 5846 5846 5845 5844 5843 5842 5841 5838 5838 5840
5866 5865 5864 5864 5863 5863 5862 5862 5862 5861 5861 5860 5860 5859 5858 5858 5857 5856 5856 5855 5854 5853 5853 5852 5851 5851 5850 5849 5848 5847 5846 5845 5845 5844 5843 5842 5841 5840 5839 5839 5838 5837 5838
5863 5862 5862 5861 5861 5860 5860 5860 5859 5859 5858 5858 5857 5856 5856 5855 5854 5854 5853 5852 5852 5851 5850 5849 5849 5848 5847 5846 5846 5845 5844 5843 5842 5841 5840 5839 5838 5838 5837 5836 5836 5835 5835
5860 5859 5859 5858 5858 5857 5857 5857 5857 5856 5855 5855 5854 5854 5853 5853 5851 5850 5850 5849 5849 5848 5847 5847 5846 5845 5844 5843 5843 5842 5841 5840 5839 5838 5837 5836 5835 5835 5834 5833 5833 5832 5832
5856 5856 5856 5855 5855 5854 5854 5854 5854 5853 5852 5851 5851 5850 5850 5849 5848 5848 5847 5846 5846 5845 5844 5844 5843 5842 5841 5840 5839 5838 5838 5837 5836 5835 5834 5833 5832 5831 5831 5830 5829 5829 5828
5853 5852 5852 5852 5852 5852 5851 5851 5850 5850 5849 5848 5848 5847 5847 5846 5845 5845 5844 5843 5843 5842 5841 5840 5839 5839 5838 5837 5836 5835 5834 5833 5833 5832 5831 5830 5829 5828 5827 5827 5826 5826 5825
5849 5849 5849 5849 5849 5849 5848 5848 5847 5846 5846 5845 5845 5844 5843 5843 5842 5842 5841 5840 5839 5838 5837 5837 5836 5835 5834 5833 5832 5832 5831 5830 5829 5828 5827 5826 5825 5825 5824 5823 5823 5822 5822
5847 5846 5846 5846 5846 5845 5845 5844 5844 5843 5843 5842 5842 5841 5840 5839 5839 5838 5838 5837 5836 5835 5834 5833 5832 5831 5831 5830 5829 5828 5827 5827 5826 5825 5824 5823 5822 5821 5820 5819 5819 5818 5818
5844 5844 5844 5843 5843 5842 5842 5841 5841 5840 5840 5839 5838 5838 5837 5836 5835 5835 5834 5833 5832 5831 5830 5829 5828 5828 5827 5826 5825 5825 5824 5823 5822 5821 5820 5819 5818 5817 5816 5816 5815 5814 5813
5841 5841 5840 5840 5840 5839 5838 5838 5837 5837 5836 5836 5835 5834 5834 5833 5832 5831 5831 5830 5829 5828 5827 5826 5825 5824 5823 5822 5822 5821 5820 5819 5818 5817 5816 5815 5814 5813 5812 5811 5811 5809 5809
5838 5837 5837 5837 5836 5836 5835 5834 5834 5833 5833 5832 5832 5831 5830 5830 5829 5828 5827 5826 5825 5824 5823 5822 5821 5820 5819 5818 5817 5817 5816 5815 5814 5813 5812 5811 5810 5809 5808 5807 5806 5805 5804
5834 5834 5833 5833 5832 5832 5831 5831 5830 5829 5829 5828 5828 5827 5827 5826 5825 5824 5823 5822 5821 5820 5819 5818 5817 5816 5815 5814 5813 5812 5811 5810 5809 5809 5808 5807 5806 5805 5804 5802 5801 5801 5800
5830 5830 5829 5829 5828 5827 5827 5826 5826 5825 5825 5824 5824 5823 5823 5822 5821 5820 5819 5818 5817 5816 5815 5814 5812 5811 5810 5809 5808 5808 5807 5806 5805 5804 5803 5802 5801 5800 5799 5798 5797 5796 5796
5825 5825 5824 5824 5823 5823 5822 5822 5821 5821 5820 5820 5819 5819 5818 5818 5817 5816 5815 5814 5813 5812 5811 5809 5808 5807 5806 5805 5804 5803 5802 5801 5800 5799 5798 5797 5796 5795 5794 5793 5792 5791 5791
5820 5820 5820 5819 5819 5818 5817 5817 5816 5816 5816 5815 5815 5814 5814 5813 5812 5812 5811 5810 5809 5808 5806 5805 5804 5802 5801 5800 5799 5798 5797 5796 5795 5794 5793 5792 5791 5790 5789 5788 5787 5786 5785
5815 5815 5814 5814 5814 5813 5812 5812 5812 5811 5811 5810 5810 5809 5809 5808 5808 5807 5806 5805 5804 5803 5802 5801 5800 5798 5797 5796 5795 5794 5793 5791 5791 5789 5788 5786 5785 5784 5784 5783 5782 5781 5780
5810 5809 5809 5809 5808 5808 5807 5807 5807 5806 5806 5805 5804 5804 5804 5803 5802 5802 5801 5800 5800 5799 5797 5796 5795 5794 5793 5792 5791 5789 5788 5787 5785 5784 5782 5781 5780 5779 5778 5777 5776 5775 5774
5804 5803 5803 5803 5802 5802 5802 5801 5801 5800 5800 5800 5799 5799 5798 5798 5797 5797 5796 5795 5795 5794 5793 5792 5791 5790 5789 5788 5786 5785 5783 5782 5781 5779 5777 5775 5774 5773 5772 5771 5770 5768 5767
5798 5797 5797 5797 5796 5796 5796 5795 5795 5795 5794 5794 5793 5793 5793 5792 5792 5791 5791 5790 5790 5789 5788 5787 5786 5785 5784 5783 5782 5780 5778 5777 5775 5773 5772 5770 5769 5767 5766 5765 5763 5762 5761
5791 5791 5791 5791 5790 5790 5790 5789 5789 5788 5788 5788 5787 5787 5787 5787 5786 5786 5785 5785 5784 5783 5782 5782 5781 5780 5779 5778 5776 5775 5773 5771 5769 5767 5766 5765 5763 5762 5761 5759 5757 5756 5755
5785 5785 5785 5784 5784 5784 5784 5783 5783 5782 5782 5782 5782 5781 5781 5781 5780 5780 5779 5779 5778 5778 5777 5776 5775 5774 5773 5772 5770 5769 5767 5765 5763 5762 5760 5759 5757 5756 5755 5753 5751 5750 5749
5779 5779 5779 5778 5778 5778 5777 5777 5776 5776 5776 5776 5775 5775 5775 5774 5774 5773 5773 5773 5773 5772 5771 5770 5769 5768 5766 5765 5764 5762 5760 5759 5757 5755 5754 5752 5751 5750 5749 5747 5745 5744 5742